| time (UTC) | temp F | wind direction | speed knots | gust knots | rain 1hr in | rain 24hr in | rain mn in | humidity % | barometer mb |
| 20260503005002 | 53 | 183 | 1.7 | 4.3 | 0.00 | 0.00 | 0.00 | 57 | 1009.7 |
| 20260503004453 | 53 | 170 | 1.7 | 4.3 | 0.00 | 0.00 | 0.00 | 57 | 1009.4 |
| 20260503004001 | 53 | 170 | 1.7 | 4.3 | 0.00 | 0.00 | 0.00 | 57 | 1009.4 |
| 20260503003454 | 53 | 181 | 1.7 | 3.5 | 0.00 | 0.00 | 0.00 | 57 | 1009.6 |
| 20260503002954 | 53 | 178 | 1.7 | 3.5 | 0.00 | 0.00 | 0.00 | 57 | 1009.5 |
| 20260503002502 | 53 | 175 | 1.7 | 3.5 | 0.00 | 0.00 | 0.00 | 57 | 1009.8 |
| 20260503002001 | 53 | 173 | 1.7 | 3.5 | 0.00 | 0.00 | 0.00 | 57 | 1009.7 |
| 20260503001454 | 53 | 173 | 1.7 | 3.5 | 0.00 | 0.00 | 0.00 | 56 | 1009.8 |
| 20260503001001 | 53 | 177 | 1.7 | 3.5 | 0.00 | 0.00 | 0.00 | 56 | 1009.9 |
| 20260503000502 | 53 | 181 | 1.7 | 4.3 | 0.00 | 0.00 | 0.00 | 56 | 1009.9 |
| 20260503000001 | 53 | 181 | 1.7 | 4.3 | 0.00 | 0.00 | 0.00 | 56 | 1010.1 |
| 20260502235454 | 53 | 181 | 1.7 | 3.5 | 0.00 | 0.00 | 0.00 | 56 | 1009.9 |
| 20260502235001 | 54 | 185 | 1.7 | 3.5 | 0.00 | 0.00 | 0.00 | 56 | 1009.9 |
| 20260502234453 | 54 | 188 | 1.7 | 3.5 | 0.00 | 0.00 | 0.00 | 56 | 1010.1 |
| 20260502234001 | 54 | 184 | 2.6 | 3.5 | 0.00 | 0.00 | 0.00 | 56 | 1010.0 |
| 20260502233501 | 54 | 181 | 1.7 | 3.5 | 0.00 | 0.00 | 0.00 | 56 | 1010.2 |
| 20260502232953 | 54 | 181 | 1.7 | 3.5 | 0.00 | 0.00 | 0.00 | 55 | 1010.1 |
| 20260502232454 | 54 | 181 | 1.7 | 3.5 | 0.00 | 0.00 | 0.00 | 56 | 1010.2 |
| 20260502232002 | 54 | 190 | 1.7 | 3.5 | 0.00 | 0.00 | 0.00 | 55 | 1010.2 |
| 20260502231502 | 54 | 189 | 1.7 | 4.3 | 0.00 | 0.00 | 0.00 | 55 | 1010.2 |
| 20260502230953 | 54 | 181 | 1.7 | 4.3 | 0.00 | 0.00 | 0.00 | 55 | 1010.3 |
| 20260502230501 | 54 | 177 | 1.7 | 3.5 | 0.00 | 0.00 | 0.00 | 54 | 1010.2 |
| 20260502225954 | 54 | 177 | 1.7 | 3.5 | 0.00 | 0.00 | 0.00 | 54 | 1010.3 |
| 20260502225502 | 55 | 181 | 1.7 | 3.5 | 0.00 | 0.00 | 0.00 | 54 | 1010.5 |
| 20260502224953 | 55 | 181 | 1.7 | 3.5 | 0.00 | 0.00 | 0.00 | 54 | 1010.3 |
| 20260502224501 | 55 | 181 | 1.7 | 3.5 | 0.00 | 0.00 | 0.00 | 54 | 1010.4 |
| 20260502223953 | 55 | 181 | 1.7 | 3.5 | 0.00 | 0.00 | 0.00 | 53 | 1010.4 |
| 20260502223504 | 55 | 173 | 1.7 | 5.2 | 0.00 | 0.00 | 0.00 | 53 | 1010.6 |
| 20260502223001 | 55 | 167 | 2.6 | 5.2 | 0.00 | 0.00 | 0.00 | 53 | 1010.6 |
| 20260502222454 | 55 | 170 | 1.7 | 5.2 | 0.00 | 0.00 | 0.00 | 53 | 1010.4 |
| 20260502222002 | 56 | 172 | 1.7 | 3.5 | 0.00 | 0.00 | 0.00 | 53 | 1010.5 |
| 20260502221453 | 56 | 167 | 1.7 | 3.5 | 0.00 | 0.00 | 0.00 | 53 | 1010.5 |
| 20260502221001 | 56 | 160 | 1.7 | 3.5 | 0.00 | 0.00 | 0.00 | 53 | 1010.5 |
| 20260502220502 | 57 | 163 | 1.7 | 3.5 | 0.00 | 0.00 | 0.00 | 52 | 1010.7 |
| 20260502215954 | 57 | 176 | 1.7 | 3.5 | 0.00 | 0.00 | 0.00 | 52 | 1010.7 |
| 20260502215501 | 57 | 178 | 1.7 | 3.5 | 0.00 | 0.00 | 0.00 | 51 | 1010.7 |
| 20260502214953 | 57 | 178 | 1.7 | 3.5 | 0.00 | 0.00 | 0.00 | 51 | 1010.6 |
| 20260502214501 | 57 | 176 | 1.7 | 3.5 | 0.00 | 0.00 | 0.00 | 51 | 1010.6 |
| 20260502213953 | 57 | 176 | 1.7 | 4.3 | 0.00 | 0.00 | 0.00 | 51 | 1010.6 |
| 20260502213501 | 57 | 173 | 2.6 | 4.3 | 0.00 | 0.00 | 0.00 | 51 | 1010.7 |
| 20260502212953 | 57 | 173 | 1.7 | 4.3 | 0.00 | 0.00 | 0.00 | 51 | 1010.7 |
| 20260502212502 | 57 | 178 | 1.7 | 3.5 | 0.00 | 0.00 | 0.00 | 51 | 1010.8 |
| 20260502211953 | 58 | 177 | 1.7 | 3.5 | 0.00 | 0.00 | 0.00 | 51 | 1010.9 |
| 20260502211502 | 58 | 183 | 1.7 | 3.5 | 0.00 | 0.00 | 0.00 | 50 | 1010.9 |
| 20260502210954 | 58 | 183 | 1.7 | 3.5 | 0.00 | 0.00 | 0.00 | 50 | 1010.7 |
| 20260502210501 | 58 | 181 | 1.7 | 3.5 | 0.00 | 0.00 | 0.00 | 49 | 1010.7 |
| 20260502205953 | 58 | 181 | 1.7 | 3.5 | 0.00 | 0.00 | 0.00 | 49 | 1010.6 |
| 20260502205502 | 59 | 176 | 1.7 | 3.5 | 0.00 | 0.00 | 0.00 | 48 | 1010.8 |
| 20260502204954 | 59 | 176 | 1.7 | 3.5 | 0.00 | 0.00 | 0.00 | 48 | 1010.7 |
| 20260502204502 | 59 | 176 | 1.7 | 4.3 | 0.00 | 0.00 | 0.00 | 48 | 1010.9 |
| 20260502203953 | 59 | 175 | 1.7 | 4.3 | 0.00 | 0.00 | 0.00 | 48 | 1010.9 |
| 20260502203501 | 59 | 172 | 2.6 | 3.5 | 0.00 | 0.00 | 0.00 | 48 | 1010.9 |
| 20260502202953 | 59 | 174 | 2.6 | 3.5 | 0.00 | 0.00 | 0.00 | 48 | 1010.9 |
| 20260502202501 | 59 | 169 | 2.6 | 3.5 | 0.00 | 0.00 | 0.00 | 48 | 1010.9 |
| 20260502201956 | 60 | 169 | 1.7 | 3.5 | 0.00 | 0.00 | 0.00 | 48 | 1010.9 |
| 20260502201501 | 60 | 174 | 1.7 | 3.5 | 0.00 | 0.00 | 0.00 | 48 | 1010.8 |
| 20260502200953 | 60 | 161 | 1.7 | 3.5 | 0.00 | 0.00 | 0.00 | 47 | 1010.8 |
| 20260502200501 | 61 | 160 | 1.7 | 3.5 | 0.00 | 0.00 | 0.00 | 46 | 1010.9 |
| 20260502195954 | 61 | 168 | 1.7 | 3.5 | 0.00 | 0.00 | 0.00 | 46 | 1010.9 |
| 20260502195503 | 61 | 174 | 1.7 | 3.5 | 0.00 | 0.00 | 0.00 | 46 | 1010.9 |
| 20260502194954 | 61 | 174 | 1.7 | 3.5 | 0.00 | 0.00 | 0.00 | 45 | 1011.1 |
| 20260502194502 | 62 | 171 | 1.7 | 3.5 | 0.00 | 0.00 | 0.00 | 45 | 1011.1 |
| 20260502193954 | 62 | 175 | 1.7 | 3.5 | 0.00 | 0.00 | 0.00 | 44 | 1010.8 |
| 20260502193502 | 62 | 177 | 1.7 | 3.5 | 0.00 | 0.00 | 0.00 | 44 | 1011.0 |
| 20260502192953 | 62 | 175 | 1.7 | 3.5 | 0.00 | 0.00 | 0.00 | 44 | 1011.0 |
| 20260502192501 | 62 | 173 | 1.7 | 3.5 | 0.00 | 0.00 | 0.00 | 44 | 1011.1 |
| 20260502191953 | 63 | 161 | 2.6 | 3.5 | 0.00 | 0.00 | 0.00 | 44 | 1011.1 |
| 20260502191502 | 63 | 158 | 1.7 | 3.5 | 0.00 | 0.00 | 0.00 | 44 | 1011.1 |
| 20260502190954 | 63 | 170 | 1.7 | 3.5 | 0.00 | 0.00 | 0.00 | 43 | 1011.2 |
| 20260502190455 | 64 | 174 | 1.7 | 3.5 | 0.00 | 0.00 | 0.00 | 43 | 1011.3 |
| 20260502190002 | 64 | 174 | 1.7 | 3.5 | 0.00 | 0.00 | 0.00 | 43 | 1011.3 |
| 20260502185453 | 64 | 171 | 1.7 | 3.5 | 0.00 | 0.00 | 0.00 | 42 | 1011.2 |
| 20260502185002 | 65 | 168 | 1.7 | 3.5 | 0.00 | 0.00 | 0.00 | 42 | 1011.2 |
| 20260502184453 | 65 | 173 | 1.7 | 3.5 | 0.00 | 0.00 | 0.00 | 41 | 1011.2 |
| 20260502184002 | 65 | 164 | 1.7 | 3.5 | 0.00 | 0.00 | 0.00 | 41 | 1011.3 |
| 20260502183454 | 66 | 157 | 1.7 | 3.5 | 0.00 | 0.00 | 0.00 | 41 | 1011.1 |
| 20260502183002 | 66 | 166 | 1.7 | 3.5 | 0.00 | 0.00 | 0.00 | 41 | 1011.1 |
| 20260502182454 | 67 | 167 | 0.9 | 3.5 | 0.00 | 0.00 | 0.00 | 41 | 1011.1 |
| 20260502182002 | 67 | 170 | 0.9 | 3.5 | 0.00 | 0.00 | 0.00 | 40 | 1011.2 |
| 20260502181502 | 68 | 172 | 1.7 | 3.5 | 0.00 | 0.00 | 0.00 | 39 | 1011.1 |
| 20260502180954 | 68 | 175 | 1.7 | 3.5 | 0.00 | 0.00 | 0.00 | 39 | 1011.1 |
| 20260502180502 | 69 | 182 | 1.7 | 3.5 | 0.00 | 0.00 | 0.00 | 37 | 1011.0 |
| 20260502170501 | 73 | 206 | 4.3 | 9.6 | 0.00 | 0.00 | 0.00 | 33 | 1011.2 |
| 20260502163953 | 74 | 190 | 4.3 | 9.6 | 0.00 | 0.00 | 0.00 | 33 | 1011.4 |
| 20260502163501 | 74 | 203 | 5.2 | 9.6 | 0.00 | 0.00 | 0.00 | 33 | 1011.6 |
| 20260502162954 | 75 | 200 | 4.3 | 9.6 | 0.00 | 0.00 | 0.00 | 32 | 1011.6 |
| 20260502162502 | 75 | 185 | 4.3 | 7.8 | 0.00 | 0.00 | 0.00 | 32 | 1011.7 |
| 20260502161954 | 75 | 195 | 4.3 | 9.6 | 0.00 | 0.00 | 0.00 | 32 | 1011.7 |
| 20260502161501 | 75 | 199 | 5.2 | 9.6 | 0.00 | 0.00 | 0.00 | 33 | 1011.6 |
| 20260502160953 | 75 | 187 | 6.1 | 8.7 | 0.00 | 0.00 | 0.00 | 32 | 1011.8 |
| 20260502160502 | 76 | 178 | 6.1 | 9.6 | 0.00 | 0.00 | 0.00 | 33 | 1012.0 |
| 20260502151954 | 77 | 196 | 4.3 | 12.2 | 0.00 | 0.00 | 0.00 | 32 | 1012.5 |
| 20260502151502 | 77 | 213 | 4.3 | 9.6 | 0.00 | 0.00 | 0.00 | 33 | 1012.6 |
| 20260502150954 | 78 | 223 | 3.5 | 8.7 | 0.00 | 0.00 | 0.00 | 33 | 1012.6 |
| 20260502150502 | 78 | 212 | 3.5 | 8.7 | 0.00 | 0.00 | 0.00 | 32 | 1012.7 |
| 20260502130503 | 78 | 195 | 6.1 | 14.8 | 0.00 | 0.00 | 0.00 | 32 | 1014.1 |
| 20260502123503 | 77 | 222 | 5.2 | 13.0 | 0.00 | 0.00 | 0.00 | 32 | 1014.3 |
| 20260502122954 | 77 | 227 | 5.2 | 11.3 | 0.00 | 0.00 | 0.00 | 31 | 1014.6 |
| 20260502122502 | 76 | 224 | 4.3 | 11.3 | 0.00 | 0.00 | 0.00 | 31 | 1014.5 |
| 20260502121954 | 77 | 204 | 5.2 | 12.2 | 0.00 | 0.00 | 0.00 | 31 | 1014.5 |
| 20260502121503 | 77 | 192 | 5.2 | 12.2 | 0.00 | 0.00 | 0.00 | 31 | 1014.6 |
| 20260502120954 | 77 | 190 | 3.5 | 8.7 | 0.00 | 0.00 | 0.00 | 30 | 1014.7 |
| 20260502120502 | 77 | 197 | 2.6 | 6.1 | 0.00 | 0.00 | 0.00 | 31 | 1014.8 |
| 20260502115502 | 77 | 190 | 6.1 | 11.3 | 0.00 | 0.00 | 0.00 | 31 | 1015.1 |
| 20260502114954 | 76 | 205 | 6.1 | 10.4 | 0.00 | 0.00 | 0.00 | 30 | 1015.1 |
| 20260502114502 | 76 | 213 | 5.2 | 10.4 | 0.00 | 0.00 | 0.00 | 29 | 1015.0 |
| 20260502113954 | 76 | 218 | 4.3 | 9.6 | 0.00 | 0.00 | 0.00 | 29 | 1015.2 |
| 20260502113502 | 76 | 224 | 4.3 | 10.4 | 0.00 | 0.00 | 0.00 | 30 | 1015.3 |
| 20260502112955 | 76 | 199 | 4.3 | 12.2 | 0.00 | 0.00 | 0.00 | 30 | 1015.4 |
| 20260502112503 | 76 | 196 | 4.3 | 12.2 | 0.00 | 0.00 | 0.00 | 31 | 1015.3 |
| 20260502111954 | 76 | 221 | 4.3 | 9.6 | 0.00 | 0.00 | 0.00 | 30 | 1015.3 |
| 20260502111502 | 76 | 225 | 4.3 | 10.4 | 0.00 | 0.00 | 0.00 | 31 | 1015.3 |
| 20260502110954 | 76 | 200 | 3.5 | 10.4 | 0.00 | 0.00 | 0.00 | 31 | 1015.2 |
| 20260502105954 | 75 | 220 | 4.3 | 10.4 | 0.00 | 0.00 | 0.00 | 33 | 1015.3 |
| 20260502105503 | 75 | 234 | 4.3 | 9.6 | 0.00 | 0.00 | 0.00 | 34 | 1015.6 |
| 20260502104954 | 75 | 222 | 4.3 | 9.6 | 0.00 | 0.00 | 0.00 | 34 | 1015.4 |
| 20260502104502 | 75 | 222 | 4.3 | 12.2 | 0.00 | 0.00 | 0.00 | 34 | 1015.5 |
| 20260502103954 | 75 | 223 | 4.3 | 12.2 | 0.00 | 0.00 | 0.00 | 35 | 1015.7 |
| 20260502103502 | 74 | 199 | 2.6 | 9.6 | 0.00 | 0.00 | 0.00 | 36 | 1015.8 |
| 20260502102954 | 74 | 177 | 3.5 | 9.6 | 0.00 | 0.00 | 0.00 | 36 | 1015.8 |
| 20260502102502 | 74 | 198 | 4.3 | 9.6 | 0.00 | 0.00 | 0.00 | 36 | 1015.9 |
| 20260502101955 | 74 | 228 | 4.3 | 9.6 | 0.00 | 0.00 | 0.00 | 35 | 1015.9 |
| 20260502101502 | 74 | 226 | 3.5 | 9.6 | 0.00 | 0.00 | 0.00 | 35 | 1016.0 |
| 20260502100955 | 74 | 190 | 2.6 | 7.0 | 0.00 | 0.00 | 0.00 | 36 | 1016.1 |
| 20260502100503 | 73 | 192 | 3.5 | 9.6 | 0.00 | 0.00 | 0.00 | 36 | 1016.2 |
| 20260502091502 | 72 | 217 | 2.6 | 6.1 | 0.00 | 0.00 | 0.00 | 40 | 1016.4 |
| 20260502090954 | 72 | 228 | 3.5 | 5.2 | 0.00 | 0.00 | 0.00 | 40 | 1016.7 |
| 20260502090502 | 71 | 218 | 3.5 | 6.1 | 0.00 | 0.00 | 0.00 | 42 | 1016.6 |
| 20260502071455 | 65 | 226 | 3.5 | 6.1 | 0.00 | 0.00 | 0.00 | 51 | 1017.0 |
| 20260502071003 | 65 | 259 | 3.5 | 6.1 | 0.00 | 0.00 | 0.00 | 50 | 1017.1 |
| 20260502070455 | 65 | 245 | 3.5 | 6.1 | 0.00 | 0.00 | 0.00 | 49 | 1017.0 |
| 20260502070003 | 65 | 210 | 2.6 | 6.1 | 0.00 | 0.00 | 0.00 | 49 | 1017.1 |
| 20260502065455 | 66 | 227 | 2.6 | 5.2 | 0.00 | 0.00 | 0.00 | 49 | 1017.1 |
| 20260502065003 | 67 | 207 | 2.6 | 5.2 | 0.00 | 0.00 | 0.00 | 48 | 1017.2 |
| 20260502064454 | 68 | 193 | 2.6 | 5.2 | 0.00 | 0.00 | 0.00 | 50 | 1017.2 |
| 20260502064002 | 67 | 202 | 2.6 | 4.3 | 0.00 | 0.00 | 0.00 | 52 | 1017.2 |
| 20260502063455 | 66 | 193 | 2.6 | 5.2 | 0.00 | 0.00 | 0.00 | 52 | 1017.2 |
| 20260502063002 | 66 | 190 | 2.6 | 5.2 | 0.00 | 0.00 | 0.00 | 51 | 1017.2 |
| 20260502062455 | 66 | 197 | 1.7 | 4.3 | 0.00 | 0.00 | 0.00 | 51 | 1017.3 |
| 20260502062002 | 65 | 211 | 1.7 | 4.3 | 0.00 | 0.00 | 0.00 | 50 | 1017.2 |
| 20260502061454 | 65 | 215 | 1.7 | 4.3 | 0.00 | 0.00 | 0.00 | 49 | 1017.2 |
| 20260502061002 | 65 | 217 | 1.7 | 3.5 | 0.00 | 0.00 | 0.00 | 49 | 1017.4 |
| 20260502060454 | 66 | 223 | 1.7 | 4.3 | 0.00 | 0.00 | 0.00 | 49 | 1017.2 |
| 20260502055954 | 66 | 219 | 1.7 | 4.3 | 0.00 | 0.00 | 0.00 | 49 | 1017.1 |
| 20260502055502 | 66 | 210 | 1.7 | 4.3 | 0.00 | 0.00 | 0.00 | 50 | 1017.1 |
| 20260502054955 | 66 | 194 | 1.7 | 5.2 | 0.00 | 0.00 | 0.00 | 50 | 1017.2 |
| 20260502054503 | 66 | 192 | 1.7 | 5.2 | 0.00 | 0.00 | 0.00 | 50 | 1017.3 |
| 20260502053955 | 65 | 207 | 1.7 | 3.5 | 0.00 | 0.00 | 0.00 | 51 | 1017.1 |
| 20260502053503 | 65 | 202 | 1.7 | 3.5 | 0.00 | 0.00 | 0.00 | 51 | 1017.2 |
| 20260502052955 | 66 | 183 | 0.9 | 3.5 | 0.00 | 0.00 | 0.00 | 51 | 1017.2 |
| 20260502052502 | 67 | 173 | 0.9 | 2.6 | 0.00 | 0.00 | 0.00 | 52 | 1017.3 |
| 20260502051954 | 67 | 175 | 0.0 | 1.7 | 0.00 | 0.00 | 0.00 | 54 | 1017.2 |
| 20260502051502 | 65 | 198 | 0.9 | 1.7 | 0.00 | 0.00 | 0.00 | 57 | 1017.1 |
| 20260502050955 | 63 | 218 | 0.9 | 1.7 | 0.00 | 0.00 | 0.00 | 60 | 1017.1 |
| 20260502050503 | 60 | 225 | 0.9 | 1.7 | 0.00 | 0.00 | 0.00 | 63 | 1017.2 |
| 20260502045955 | 60 | 225 | 0.9 | 1.7 | 0.00 | 0.00 | 0.00 | 64 | 1017.3 |
| 20260502045504 | 60 | 225 | 0.0 | 1.7 | 0.00 | 0.00 | 0.00 | 68 | 1017.3 |
| 20260502044955 | 58 | 247 | 0.0 | 1.7 | 0.00 | 0.00 | 0.00 | 70 | 1017.1 |
| 20260502044502 | 57 | 264 | 0.0 | 1.7 | 0.00 | 0.00 | 0.00 | 73 | 1017.3 |
| 20260502043954 | 55 | 19 | 0.0 | 1.7 | 0.00 | 0.00 | 0.00 | 76 | 1017.3 |
| 20260502043455 | 52 | 45 | 0.0 | 0.9 | 0.00 | 0.00 | 0.00 | 79 | 1017.1 |
| 20260502043004 | 50 | 45 | 0.0 | 0.9 | 0.00 | 0.00 | 0.00 | 79 | 1017.0 |
| 20260502042503 | 49 | 0 | 0.0 | 0.0 | 0.00 | 0.00 | 0.00 | 79 | 1017.1 |
| 20260502042003 | 48 | 0 | 0.0 | 0.0 | 0.00 | 0.00 | 0.00 | 80 | 1017.0 |
| 20260502041455 | 47 | 0 | 0.0 | 0.0 | 0.00 | 0.00 | 0.00 | 82 | 1017.1 |
| 20260502041002 | 46 | 0 | 0.0 | 0.0 | 0.00 | 0.00 | 0.00 | 83 | 1017.2 |
| 20260502040455 | 43 | 0 | 0.0 | 0.0 | 0.00 | 0.00 | 0.00 | 82 | 1017.1 |
| 20260502040003 | 43 | 0 | 0.0 | 0.0 | 0.00 | 0.00 | 0.00 | 82 | 1017.0 |
| 20260502035503 | 43 | 135 | 0.0 | 1.7 | 0.00 | 0.00 | 0.00 | 82 | 1017.1 |
| 20260502034955 | 43 | 125 | 0.9 | 1.7 | 0.00 | 0.00 | 0.00 | 82 | 1017.0 |
| 20260502034502 | 43 | 123 | 0.9 | 1.7 | 0.00 | 0.00 | 0.00 | 81 | 1017.3 |
| 20260502033954 | 43 | 131 | 0.9 | 1.7 | 0.00 | 0.00 | 0.00 | 81 | 1017.2 |
| 20260502033503 | 43 | 135 | 0.0 | 1.7 | 0.00 | 0.00 | 0.00 | 81 | 1017.3 |
| 20260502032955 | 43 | 0 | 0.0 | 0.0 | 0.00 | 0.00 | 0.00 | 81 | 1017.4 |
| 20260502032455 | 43 | 0 | 0.0 | 0.0 | 0.00 | 0.00 | 0.00 | 81 | 1017.2 |
| 20260502032003 | 43 | 0 | 0.0 | 0.0 | 0.00 | 0.00 | 0.00 | 80 | 1017.3 |
| 20260502031455 | 43 | 90 | 0.0 | 1.7 | 0.00 | 0.00 | 0.00 | 80 | 1017.3 |
| 20260502031002 | 43 | 90 | 0.9 | 1.7 | 0.00 | 0.00 | 0.00 | 80 | 1017.2 |
| 20260502030456 | 43 | 90 | 0.9 | 1.7 | 0.00 | 0.00 | 0.00 | 80 | 1017.4 |
| 20260502030003 | 43 | 90 | 0.0 | 1.7 | 0.00 | 0.00 | 0.00 | 80 | 1017.4 |
| 20260502025455 | 43 | 90 | 0.0 | 1.7 | 0.00 | 0.00 | 0.00 | 80 | 1017.1 |
| 20260502025002 | 43 | 0 | 0.0 | 0.0 | 0.00 | 0.00 | 0.00 | 80 | 1017.3 |
| 20260502024455 | 43 | 0 | 0.0 | 0.0 | 0.00 | 0.00 | 0.00 | 80 | 1017.3 |
| 20260502024003 | 43 | 0 | 0.0 | 0.0 | 0.00 | 0.00 | 0.00 | 79 | 1017.3 |
| 20260502023455 | 43 | 0 | 0.0 | 0.0 | 0.00 | 0.00 | 0.00 | 79 | 1017.4 |
| 20260502023002 | 43 | 0 | 0.0 | 0.0 | 0.00 | 0.00 | 0.00 | 79 | 1017.5 |
| 20260502022503 | 44 | 0 | 0.0 | 0.0 | 0.00 | 0.00 | 0.00 | 79 | 1017.5 |
| 20260502022002 | 43 | 0 | 0.0 | 0.0 | 0.00 | 0.00 | 0.00 | 79 | 1017.4 |
| 20260502021503 | 44 | 1 | 0.0 | 1.7 | 0.00 | 0.00 | 0.00 | 79 | 1017.5 |
| 20260502021002 | 44 | 1 | 0.0 | 1.7 | 0.00 | 0.00 | 0.00 | 79 | 1017.4 |
| 20260502020503 | 44 | 1 | 0.9 | 1.7 | 0.00 | 0.00 | 0.00 | 78 | 1017.4 |
| 20260502015955 | 44 | 4 | 0.9 | 1.7 | 0.00 | 0.00 | 0.00 | 78 | 1017.4 |
| 20260502015502 | 44 | 9 | 0.0 | 1.7 | 0.00 | 0.00 | 0.00 | 78 | 1017.6 |
| 20260502014955 | 44 | 0 | 0.0 | 0.0 | 0.00 | 0.00 | 0.00 | 77 | 1017.4 |
| 20260502014503 | 44 | 0 | 0.0 | 0.0 | 0.00 | 0.00 | 0.00 | 77 | 1017.5 |
| 20260502013955 | 44 | 0 | 0.0 | 0.0 | 0.00 | 0.00 | 0.00 | 77 | 1017.4 |
| 20260502013503 | 44 | 0 | 0.0 | 0.0 | 0.00 | 0.00 | 0.00 | 76 | 1017.5 |
| 20260502012955 | 44 | 0 | 0.0 | 0.0 | 0.00 | 0.00 | 0.00 | 76 | 1017.3 |
| 20260502012503 | 44 | 0 | 0.0 | 0.0 | 0.00 | 0.00 | 0.00 | 76 | 1017.5 |
| 20260502011954 | 45 | 0 | 0.0 | 0.0 | 0.00 | 0.00 | 0.00 | 76 | 1017.4 |
| 20260502011502 | 45 | 0 | 0.0 | 0.0 | 0.00 | 0.00 | 0.00 | 76 | 1017.4 |
| 20260502010955 | 45 | 0 | 0.0 | 0.0 | 0.00 | 0.00 | 0.00 | 75 | 1017.5 |
| 20260502010503 | 45 | 0 | 0.0 | 0.0 | 0.00 | 0.00 | 0.00 | 74 | 1017.7 |
| 20260502010003 | 45 | 0 | 0.0 | 0.0 | 0.00 | 0.00 | 0.00 | 74 | 1017.6 |
| 20260502005455 | 45 | 45 | 0.0 | 0.9 | 0.00 | 0.00 | 0.00 | 74 | 1017.6 |